TimeCDT,TemperatureF,Dew PointF,Humidity,Sea Level PressureIn,VisibilityMPH,Wind Direction,Wind SpeedMPH,Gust SpeedMPH,PrecipitationIn,Events,Conditions,WindDirDegrees,DateUTC
12:53 AM,79.0,75.9,90,29.96,10.0,Calm,Calm,-,N/A,,Clear,0,2013-08-09 05:53:00
1:53 AM,78.1,75.9,93,29.97,8.0,Calm,Calm,-,N/A,,Clear,0,2013-08-09 06:53:00
2:53 AM,78.1,75.9,93,29.97,9.0,Calm,Calm,-,N/A,,Clear,0,2013-08-09 07:53:00
3:53 AM,77.0,75.0,94,29.96,10.0,Calm,Calm,-,N/A,,Scattered Clouds,0,2013-08-09 08:53:00
4:53 AM,75.9,73.9,94,29.96,8.0,Calm,Calm,-,N/A,,Clear,0,2013-08-09 09:53:00
5:53 AM,75.9,73.9,94,29.98,8.0,Calm,Calm,-,N/A,,Clear,0,2013-08-09 10:53:00
6:53 AM,75.9,73.9,94,29.99,6.0,Calm,Calm,-,N/A,,Clear,0,2013-08-09 11:53:00
7:11 AM,75.2,73.4,94,30.00,6.0,SE,3.5,-,N/A,,Partly Cloudy,140,2013-08-09 12:11:00
7:36 AM,77.0,75.2,94,30.00,5.0,ESE,3.5,-,N/A,,Mostly Cloudy,120,2013-08-09 12:36:00
7:53 AM,78.1,75.9,93,30.00,7.0,ESE,3.5,-,N/A,,Mostly Cloudy,120,2013-08-09 12:53:00
8:27 AM,80.6,75.2,84,30.01,9.0,ESE,8.1,-,N/A,,Mostly Cloudy,110,2013-08-09 13:27:00
8:38 AM,80.6,75.2,84,30.01,10.0,East,6.9,-,N/A,,Scattered Clouds,100,2013-08-09 13:38:00
8:48 AM,80.6,77.0,89,30.02,10.0,East,5.8,-,N/A,,Mostly Cloudy,100,2013-08-09 13:48:00
8:53 AM,81.0,75.9,85,30.01,10.0,East,4.6,-,N/A,,Mostly Cloudy,100,2013-08-09 13:53:00
9:03 AM,82.4,77.0,84,30.02,10.0,SE,4.6,-,N/A,,Scattered Clouds,130,2013-08-09 14:03:00
9:53 AM,84.9,77.0,77,30.01,10.0,SE,4.6,-,N/A,,Clear,140,2013-08-09 14:53:00
10:25 AM,84.2,77.0,79,30.02,10.0,East,5.8,-,N/A,,Mostly Cloudy,100,2013-08-09 15:25:00
10:53 AM,87.1,77.0,72,30.02,10.0,Calm,Calm,-,N/A,,Mostly Cloudy,0,2013-08-09 15:53:00
11:12 AM,87.8,75.2,66,30.02,10.0,Variable,3.5,-,N/A,,Mostly Cloudy,0,2013-08-09 16:12:00
11:53 AM,88.0,77.0,70,30.01,10.0,Variable,4.6,-,N/A,,Mostly Cloudy,0,2013-08-09 16:53:00
12:53 PM,89.1,75.0,63,29.99,10.0,ESE,6.9,-,0.00,Thunderstorm,Mostly Cloudy,110,2013-08-09 17:53:00
1:53 PM,80.1,72.0,76,30.00,10.0,SSE,11.5,-,N/A,,Clear,160,2013-08-09 18:53:00
2:05 PM,80.6,71.6,74,30.01,10.0,SSE,9.2,-,N/A,Thunderstorm,Clear,150,2013-08-09 19:05:00
2:23 PM,80.6,71.6,74,30.00,10.0,SE,8.1,-,N/A,,Partly Cloudy,130,2013-08-09 19:23:00
2:53 PM,82.0,73.0,74,29.99,10.0,South,4.6,-,N/A,Thunderstorm,Clear,170,2013-08-09 19:53:00
3:10 PM,82.4,73.4,74,30.00,10.0,SSE,8.1,-,N/A,,Clear,150,2013-08-09 20:10:00
3:53 PM,82.0,75.0,79,29.99,10.0,South,6.9,-,N/A,,Clear,170,2013-08-09 20:53:00
4:53 PM,84.0,73.9,72,29.98,10.0,South,4.6,-,N/A,,Clear,180,2013-08-09 21:53:00
5:53 PM,84.0,75.0,74,29.98,10.0,SE,3.5,-,N/A,,Clear,130,2013-08-09 22:53:00
6:53 PM,84.0,75.9,76,29.99,10.0,South,4.6,-,N/A,,Partly Cloudy,190,2013-08-09 23:53:00
7:11 PM,84.2,75.2,74,30.00,10.0,South,6.9,-,N/A,Thunderstorm,Thunderstorm,170,2013-08-10 00:11:00
7:36 PM,82.4,75.2,79,30.02,10.0,SSE,5.8,-,N/A,,Clear,150,2013-08-10 00:36:00
7:53 PM,82.0,75.0,79,30.01,10.0,Calm,Calm,-,0.00,Rain,Light Rain,0,2013-08-10 00:53:00
8:53 PM,79.0,75.9,90,30.03,10.0,Calm,Calm,-,0.01,,Clear,0,2013-08-10 01:53:00
9:53 PM,79.0,75.9,90,30.06,10.0,East,3.5,-,N/A,,Partly Cloudy,90,2013-08-10 02:53:00
10:53 PM,78.1,75.9,93,30.04,10.0,Calm,Calm,-,N/A,,Clear,0,2013-08-10 03:53:00
11:53 PM,78.1,75.0,90,30.05,10.0,Calm,Calm,-,N/A,,Clear,0,2013-08-10 04:53:00